Regional Weather Roundup
Issued by NWS

Home | Current Version | Previous Version | Graphics & Text | Print | Product List | Glossary On
Versions: 1 2 3 4 5 6 7 8 9 10 11 12 13 14 15 16 17 18 19 20 21 22 23 24 25 26 27 28 29 30 31 32 33 34 35 36 37 38 39 40 41 42 43 44 45 46 47 48 49 50
000
ASUS43 KMKX 200020
RWRWI

WISCONSIN REGIONAL WEATHER ROUNDUP
NATIONAL WEATHER SERVICE MILWAUKEE/SULLIVAN WI
600 PM CST FRI JAN 19 2018

NOTE: "FAIR" INDICATES FEW OR NO CLOUDS BELOW 12,000 FEET WITH NO
SIGNIFICANT WEATHER AND/OR OBSTRUCTIONS TO VISIBILITY.

WIZ001-002-006>008-014>016-023>028-200100-
NORTHWEST WISCONSIN

CITY           SKY/WX    TMP DP  RH WIND       PRES   REMARKS
SUPERIOR ARPT  FAIR      39  28  66 W10       29.46R WCI  32
6HR MIN TEMP:  37; 6HR MAX TEMP:  40;

ASHLAND        FAIR      40  26  57 SW12      29.46R WCI  33
6HR MIN TEMP:  38; 6HR MAX TEMP:  42;

HAYWARD        FAIR      30  22  72 S6        29.50R WCI  24
6HR MIN TEMP:  30; 6HR MAX TEMP:  42;

SIREN          FAIR      35  26  69 SW5       29.53R WCI  31
6HR MIN TEMP:  35; 6HR MAX TEMP:  43;

CUMBERLAND     FAIR      32  25  74 S5        29.53R WCI  27
RICE LAKE      FAIR      32  27  80 CALM      29.56R
6HR MIN TEMP:  32; 6HR MAX TEMP:  40;

CHETEK         NOT AVBL
LADYSMITH      FAIR      32  25  75 SW3       29.54R
6HR MIN TEMP:  32; 6HR MAX TEMP:  40;

EAU CLAIRE     FAIR      36  28  73 SW8       29.55R WCI  30
6HR MIN TEMP:  35; 6HR MAX TEMP:  42;

MENOMONIE      FAIR      37  29  73 SW3       29.56R
6HR MIN TEMP:  36; 6HR MAX TEMP:  42;

NEW RICHMOND   FAIR      31  25  77 W3        29.57R
6HR MIN TEMP:  31; 6HR MAX TEMP:  40;

OSCEOLA        FAIR      31  26  80 SW3       29.59R
6HR MIN TEMP:  31; 6HR MAX TEMP:  41;

$$

WIZ003>005-009-010-017-018-200100-
NORTH CENTRAL WISCONSIN

CITY           SKY/WX    TMP DP  RH WIND       PRES   REMARKS
MANITOWISH WTR FAIR      36  24  63 SW7       29.46R WCI  30
6HR MIN TEMP:  33; 6HR MAX TEMP:  40;

ARBOR VITAE    FAIR      37  26  66 SW8       29.46R WCI  30
6HR MIN TEMP:  32; 6HR MAX TEMP:  39;

WOODRUFF       FAIR      37  26  66 SW8       29.46R WCI  30
6HR MIN TEMP:  32; 6HR MAX TEMP:  39;

RHINELANDER    FAIR      35  26  69 SW9       29.47R WCI  28
6HR MIN TEMP:  32; 6HR MAX TEMP:  39;

EAGLE RIVER    FAIR      32  24  71 SW7       29.46R WCI  25
6HR MIN TEMP:  30; 6HR MAX TEMP:  38;

LAND O LAKES   FAIR      34  26  74 W3        29.46R
6HR MIN TEMP:  33; 6HR MAX TEMP:  39; 6HR PCP:  0.03;

PHILLIPS       FAIR      33  25  72 SW6       29.50R WCI  28
6HR MIN TEMP:  33; 6HR MAX TEMP:  41;

TOMAHAWK       FAIR      33  25  70 CALM      29.49R
6HR MIN TEMP:  32; 6HR MAX TEMP:  39;

MEDFORD        FAIR      34  24  68 SW8       29.52R WCI  27
6HR MIN TEMP:  30; 6HR MAX TEMP:  36;

MERRILL        FAIR      31  25  78 SW5       29.52R WCI  26
6HR MIN TEMP:  31; 6HR MAX TEMP:  40;

$$

WIZ029-030-035-036-043>047-200100-
CENTRAL WISCONSIN

CITY           SKY/WX    TMP DP  RH WIND       PRES   REMARKS
WAUSAU         FAIR      35  25  66 SW6       29.49S WCI  30
6HR MIN TEMP:  33; 6HR MAX TEMP:  37;

MOSINEE        PTCLDY    30  25  80 S6        29.52S WCI  24
MARSHFIELD     FAIR      37  26  64 SW12      29.51R WCI  29
6HR MIN TEMP:  33; 6HR MAX TEMP:  40;

STEVENS POINT  FAIR      35  24  65 SW7       29.54R WCI  29
6HR MIN TEMP:  32; 6HR MAX TEMP:  37;

WAUPACA        FAIR      38  26  62 SW7       29.55R WCI  33
6HR MIN TEMP:  38; 6HR MAX TEMP:  43;

WAUTOMA        FAIR      37  25  61 SW8       29.56R WCI  31
6HR MIN TEMP:  36; 6HR MAX TEMP:  40;

WISC RAPIDS    FAIR      34  23  64 SW6       29.55R WCI  29
6HR MIN TEMP:  33; 6HR MAX TEMP:  39;

CAMP DOUGLAS   FAIR      40  27  59 SW8       29.56R WCI  35
6HR MIN TEMP:  37; 6HR MAX TEMP:  42;

$$

WIZ011>013-019>022-031-037>040-048>050-200100-
NORTHEAST WISCONSIN

CITY           SKY/WX    TMP DP  RH WIND       PRES   REMARKS
ANTIGO         FAIR      32  24  73 SW7       29.48F WCI  25
6HR MIN TEMP:  31; 6HR MAX TEMP:  37;

SHAWANO        FAIR      37  27  66 SW6       29.52R WCI  32
6HR MIN TEMP:  35; 6HR MAX TEMP:  41;

OCONTO         FAIR      34  26  72 SW6       29.52R WCI  29
6HR MIN TEMP:  33; 6HR MAX TEMP:  37;

STURGEON BAY   FAIR      34  28  79 S9        29.53R WCI  27
6HR MIN TEMP:  34; 6HR MAX TEMP:  37;

GREEN BAY      FAIR      35  26  69 SW9       29.55R WCI  28
6HR MIN TEMP:  33; 6HR MAX TEMP:  36;

MANITOWOC      FAIR      38  26  62 SW13      29.55R WCI  30
6HR MIN TEMP:  35; 6HR MAX TEMP:  40;

APPLETON       MOCLDY    34  25  69 SW18      29.52R WCI  23
CLINTONVILLE   FAIR      34  27  75 SW6       29.53R WCI  29
OSHKOSH        FAIR      36  27  69 SW17G26   29.55R WCI  26
6HR MIN TEMP:  34; 6HR MAX TEMP:  37;

$$

WIZ032>034-041-042-053>061-200100-
SOUTHWEST WISCONSIN

CITY           SKY/WX    TMP DP  RH WIND       PRES   REMARKS
LA CROSSE      FAIR      39  30  70 S10       29.59R WCI  32
6HR MIN TEMP:  35; 6HR MAX TEMP:  42;

SPARTA         FAIR      40  29  62 SW5       29.58R
6HR MIN TEMP:  36; 6HR MAX TEMP:  43;

VIROQUA        FAIR      39  30  70 SW15      29.59R WCI  31
6HR MIN TEMP:  34; 6HR MAX TEMP:  41;

BOSCOBEL       FAIR      41  28  60 SW9       29.62R
6HR MIN TEMP:  39; 6HR MAX TEMP:  45;

PRAIRIE DU CHI FAIR      42  26  53 S3        29.62S
6HR MIN TEMP:  37; 6HR MAX TEMP:  45;

PLATTEVILLE    FAIR      38  31  76 SW17      29.65S WCI  28
6HR MIN TEMP:  37; 6HR MAX TEMP:  40;

$$

WIZ056-057-062-063-064-067-068-200100-
SOUTH CENTRAL WISCONSIN

CITY           SKY/WX    TMP DP  RH WIND       PRES   REMARKS
REEDSBURG      FAIR      38  28  65 SW14      29.58S WCI  30
6HR MIN TEMP:  35; 6HR MAX TEMP:  40;

BARABOO/DELLS  FAIR      39  26  60 SW13G23   29.57S WCI  31
6HR MIN TEMP:  36; 6HR MAX TEMP:  41;

LONE ROCK      FAIR      39  28  64 SW8       29.62S WCI  33
6HR MIN TEMP:  37; 6HR MAX TEMP:  42;

MINERAL POINT  FAIR      37  32  81 S13G18    29.63R WCI  29
MADISON        MOCLDY    37  27  67 SW12G23   29.62S WCI  29
6HR MIN TEMP:  36; 6HR MAX TEMP:  39;

MIDDLETON      FAIR      39  28  63 SW14G23   29.61S WCI  31
6HR MIN TEMP:  38; 6HR MAX TEMP:  42;

WATERTOWN      FAIR      37  28  72 S17       29.61F WCI  27
6HR MIN TEMP:  35; 6HR MAX TEMP:  38;

MONROE         FAIR      36  28  75 S24G30    29.63F WCI  24
JANESVILLE     PTCLDY    39  28  65 SW15      29.66F WCI  31
$$

WIZ051-052-058>065-066-070>072-200100-
SOUTHEAST WISCONSIN

CITY           SKY/WX    TMP DP  RH WIND       PRES   REMARKS
MILWAUKEE      CLOUDY    38  27  64 SW22G35   29.62F WCI  27
6HR MIN TEMP:  38; 6HR MAX TEMP:  41;

WAUKESHA       CLEAR     36  27  69 SW16G24   29.63F WCI  26
MILWAUKEE/TIMM CLEAR     37  25  60 SW14G26   29.63F WCI  29
RACINE         FAIR      38  26  62 SW15G26   29.67S WCI  29
6HR MIN TEMP:  37; 6HR MAX TEMP:  40;

BURLINGTON     FAIR      36  27  71 S18G24    29.66F WCI  25
6HR MIN TEMP:  35; 6HR MAX TEMP:  39;

KENOSHA        FAIR      39  26  59 SW18G30   29.66F WCI  30
6HR MIN TEMP:  37; 6HR MAX TEMP:  40;

FOND DU LAC    FAIR      37  25  61 S21G31    29.55S WCI  26
6HR MIN TEMP:  35; 6HR MAX TEMP:  38;

SHEBOYGAN      FAIR      37  27  67 SW15      29.55F WCI  28
6HR MIN TEMP:  35; 6HR MAX TEMP:  39;

WEST BEND      FAIR      36  27  69 SW14G20   29.58F WCI  27
JUNEAU         FAIR      35  27  74 S17       29.61R WCI  24
6HR MIN TEMP:  33; 6HR MAX TEMP:  36;

$$

LSZ147-162-200100-
LAKE SUPERIOR

STATION/POSITION TIME  TEMP    WIND        PRES    WAVE
                       AIR SEA DIR/SP/G            HT/PER
                 (UTC) (F)     (DEG/KT/KT) (MB)    (FT/S)
DEVILS ISLAND    0000   39     220/ 15/ 16  996.2R
SAXON HARBOR     2330   43     200/ 11/ 17  996.6R
$$

LMZ867-665-643>646-200100-
LAKE MICHIGAN

STATION/POSITION TIME  TEMP    WIND        PRES    WAVE
                       AIR SEA DIR/SP/G            HT/PER
                 (UTC) (F)     (DEG/KT/KT) (MB)    (FT/S)
NORTHPORT PIER   0002



USA.gov is the U.S. government's official web portal to all federal, state and local government web resources and services.